This is the latest recevied weather packets stored in our database for station/object N1ORT. If no packets are shown the sender has not sent any weather packets the latest 10 day(s).
| Time | Temp. | Humidity | Pressure | Rain* | Wind** | Luminosity | Snow |
|---|---|---|---|---|---|---|---|
| 1777688601 | 6.11° C | 75% | 1009.9 hPa | 0 mm | - | 0 W/m² | - |
| 1777688298 | 6.11° C | 75% | 1009.9 hPa | 0 mm | - | 0 W/m² | - |
| 1777687995 | 6.11° C | 74% | 1009.7 hPa | 0 mm | - | 0 W/m² | - |
| 1777687692 | 6.67° C | 75% | 1009.9 hPa | 0 mm | - | 0 W/m² | - |
| 1777687390 | 6.67° C | 74% | 1009.7 hPa | 0 mm | - | 0 W/m² | - |
| 1777687086 | 6.67° C | 73% | 1009.7 hPa | 0 mm | - | 0 W/m² | - |
| 1777686783 | 6.67° C | 72% | 1009.8 hPa | 0 mm | - | 0 W/m² | - |
| 1777686481 | 7.22° C | 72% | 1009.7 hPa | 0 mm | - | 0 W/m² | - |
| 1777686177 | 7.22° C | 70% | 1009.7 hPa | 0 mm | - | 0 W/m² | - |
| 1777685873 | 7.22° C | 69% | 1009.8 hPa | 0 mm | - | 0 W/m² | - |
| 1777685569 | 7.78° C | 69% | 1009.8 hPa | 0 mm | - | 0 W/m² | - |
| 1777685266 | 7.78° C | 68% | 1009.7 hPa | 0 mm | - | 0 W/m² | - |
| 1777684964 | 7.78° C | 67% | 1009.7 hPa | 0 mm | - | 0 W/m² | - |
| 1777684661 | 7.78° C | 66% | 1009.4 hPa | 0 mm | - | 0 W/m² | - |
| 1777684357 | 8.33° C | 65% | 1009.5 hPa | 0 mm | - | 0 W/m² | - |
| 1777684055 | 8.33° C | 64% | 1009.5 hPa | 0 mm | - | 0 W/m² | - |
| 1777683750 | 8.89° C | 59% | 1009.4 hPa | 0 mm | - | 0 W/m² | - |
| 1777683448 | 8.89° C | 59% | 1009.3 hPa | 0 mm | - | 0 W/m² | - |
| 1777683146 | 8.89° C | 58% | 1009.3 hPa | 0 mm | - | 0 W/m² | - |
| 1777682842 | 9.44° C | 54% | 1009.3 hPa | 0 mm | - | 0 W/m² | - |
| 1777682539 | 9.44° C | 51% | 1009.3 hPa | 0 mm | - | 0 W/m² | - |
| 1777682237 | 9.44° C | 51% | 1009.1 hPa | 0 mm | - | 0 W/m² | - |
| 1777681934 | 10° C | 51% | 1009.2 hPa | 0 mm | - | 0 W/m² | - |
| 1777681629 | 10° C | 49% | 1009 hPa | 0 mm | - | 0 W/m² | - |
| 1777681327 | 10.56° C | 47% | 1009 hPa | 0 mm | - | 0 W/m² | - |
* Rain latest hour (hover to see other rain measurements)
** Current wind speed in m/s (hover to see current wind gust speed)